Regional Weather Roundup
Issued by NWS

Home | Current Version | Previous Version | Graphics & Text | Print | Product List | Glossary On
Versions: 1 2 3 4 5 6 7 8 9 10 11 12 13 14 15 16 17 18 19 20 21 22 23 24 25 26 27
000
ASUS45 KSLC 261110
RWRUT

UTAH REGIONAL WEATHER ROUNDUP
NATIONAL WEATHER SERVICE SALT LAKE CITY UT
500 AM MDT MON SEP 26 2016

UTZ001>011-023>025-261200-

NORTHERN UTAH

CITY           SKY/WX    TMP DP  RH WIND       PRES   REMARKS
BRIGHAM CITY     N/A     50  44  80 CALM      30.41F
HILL AFB       CLEAR     49  37  64 E15       30.41S
LOGAN          CLEAR     46  43  89 CALM      30.43F
OGDEN          CLEAR     50  39  66 S8        30.41R
PROVO AIRPORT  CLEAR     43  39  86 SE3       30.42F
SALT LAKE CITY CLEAR     51  42  71 SE6       30.40S
VERNAL         CLOUDY    41  38  89 CALM      30.45S
WENDOVER       CLEAR     50  39  66 W5        30.41R
HEBER CITY     CLEAR     37  34  87 CALM      30.46F
WEST JORDAN    CLEAR     46  41  84 CALM      30.41S

$$

UTZ012>022-026-027-261200-

SOUTHERN/CENTRAL UTAH

CITY           SKY/WX    TMP DP  RH WIND       PRES   REMARKS
BLANDING       CLEAR     49  31  49 CALM      30.49R
BRYCE CANYON   CLEAR     33  27  78 W12       30.51S WCI  24
CEDAR CITY     CLEAR     41  34  76 S5        30.40F
DELTA          CLEAR     45  37  76 CALM      30.40F
MILFORD        CLEAR     42  38  85 CALM      30.40S
MOAB/CYNLANDS  CLEAR     50  36  58 W5        30.37R
PRICE          CLEAR     45  37  73 CALM      30.41F
ST GEORGE      SUNNY     63  34  34 CALM      30.28R

$$

REGIONAL REPORTS     COLORADO/ARIZONA

CITY           SKY/WX    TMP DP  RH WIND       PRES   REMARKS
CRAIG, CO      CLOUDY    30  28  92 CALM      30.50S
GRAND JUNCTION CLOUDY    48  37  65 SE15      30.41R
RIFLE          CLOUDY    41  38  89 CALM      30.47R
MONTROSE       CLOUDY    43  35  73 SE9       30.47S
CORTEZ         CLEAR     37  34  89 NE3       30.44R
PAGE, AZ       CLEAR     59  33  37 SW5       30.34R
GRAND CANYON   CLEAR     56  29  35 E15G21    30.43R
KINGMAN        CLEAR     57  32  38 E5        30.21S
FLAGSTAFF      CLEAR     47  30  51 E3        30.42F

$$

REGIONAL REPORTS    NEVADA/IDAHO/WYOMING

CITY           SKY/WX    TMP DP  RH WIND       PRES   REMARKS
LAS VEGAS, NV  CLEAR     70  27  20 CALM      30.17R
ELY            CLEAR     34  27  75 S12       30.46F WCI  25
ELKO           CLEAR     43  37  79 CALM      30.41S
POCATELLO, ID  CLOUDY    40  37  89 NW5       30.43S
BURLEY         CLEAR     43  41  93 CALM      30.39S
EVANSTON, WY   CLOUDY    44  31  60 SW6       30.50S
ROCK SPRINGS   CLOUDY    44  34  67 SW3       30.47F

$$




USA.gov is the U.S. government's official web portal to all federal, state and local government web resources and services.